Погода в Балхаше

Погода в Балхаше : погода сейчас, прогноз погоды и архив. Всё, что Вы хотите узнать о погоде в Балхаше!

Хотите узнать прогноз погоды в Балхаше? Тогда Вам сюда: Погода в Балхаше

Поиск расширенной информации на нашем сайте:

Другие новости

Новости СМИ2

Главная страница сайта

Новости сайта

03.07.2017

Напоминаем, что на нашем специализированном сайте Метеоцентр.Азия вы можете получить высокодетализированные автоматические прогнозы погоды по пунктам России, СНГ и мира в авиационном формате (включающие направление и скорость ветра, видимость, явления погоды, количество и форму облачности, нижнюю и верхнюю границу облачности).


Погода в Балхаше - сегодня

Время (UTC), дата Ветер
(°,м/с) 
Видим.   Явления Облачность Т
(°С)
Тd
(°С)
f(%) Тe
(°С)
Pmin
(гПа)
dP
(гПа)
Po
(мм)
O2
(г/м3)
Тmin Tmax R s Состояние
почвы
03 20.07.17 070 (В) 20000 м    3/0 верхняя 
[Ci fib]
+21.6 +11.5 53 +25  1013.9  0.8  731  271  +16.1        сухая 
06 20.07.17 360 (С) 20000 м    3/3 1000 м верхняя 
[Cu hum|Ci sp]
+26.4 +6.4 28 +26  1012.5  -0.8  730  267  +16.1         
09 20.07.17 200 (Ю) 20000 м    4/4 1000 м 
[Cu hum]
+24.9 +18.5 68 +41  1011.3  -1.2  729  265           
12 20.07.17 230 (ЮЗ) 20000 м    5/5 1000 м 
[Cu med, cong]
+25.8 +13.8 47 +33  1010.4  -0.8  728  265           
15 20.07.17 230 (ЮЗ) 10 км    1/1 1500 м 
[Sc diur, vesp]
+23.9 +17 65 +37  1010.6  728  266    +27.3       
18 20.07.17 050 (СВ) 10 км    ясно 
+22.2 +6.8 37 +22  1011.5  0.5  729  270    +27.3       
21 20.07.17 050 (СВ) 10 км    ясно 
+19.8 +8 46 +20  1011.5  -0.3  729  272           
00 21.07.17 050 (СВ) 20000 м    ясно 
+18.7 +7.9 49 +19  1012.1  0.4  729  273           
03 21.07.17 090 (В) 20000 м    1/0 средняя 
[Ac trans]
+24.8 +10.2 40 +27  1012.3  1.1  730  268           
06 21.07.17 200 (Ю) 20000 м    3/3 1500 м верхняя 
[Cu med, cong|Ci fib]
+25.4 +15.3 54 +35  1011.8  -0.4  729  266  +18.1         
09 21.07.17 200 (Ю) 20000 м    8/5 1000 м средняя, верхняя 
[Sc diur, vesp|Ac trans|Ci sp]
+26.7 +14.7 48 +36  1010.8  -0.8  729  264           
12 21.07.17 200 (Ю) 10 км    3/3 1000 м верхняя 
[Cu med, cong|Ci fib]
+27.8 +15.4 47 +38  1009.4  -1.2  728  263           
15 21.07.17 230 (ЮЗ) 10 км    4/3 1000 м верхняя 
[Sc diur, vesp|Ci fib]
+25.3 +17.4 62 +39  1009.5  -0.2  728  264    +28.3       
18 21.07.17 тихо ()   10 км    3/3 1000 м 
[Sc]
+24.1 +17.1 65 +38  1008.9  -0.7  727  265    +28.3       
21 21.07.17 050 (СВ) 10 км    3/3 1000 м 
[Sc]
+22.8 +8 39 +23  1008.9  -0.3  727  269           
00 22.07.17 050 (СВ) 20000 м    4/4 1000 м 
[Sc]
+20 +11.4 58 +24  1009.1  -0.1  727  271           
03 22.07.17 270 (З) 20000 м    5/3 1000 м средняя 
[Sc|Ac cast]
+23.9 +13 50 +30  1009.7  1.1  728  267  +20        сухая 
06 22.07.17 200 (Ю) 10 км  дым  1/1 1000 м 
[Cu hum]
+26.7 +18.5 61 +43  1009.1  -0.1  728  263  +20         
09 22.07.17 230 (ЮЗ) 20000 м    3/3 1000 м 
+28.9 +17.9 51 +29    -0.6             
12 22.07.17 230 (ЮЗ) 10 км    3/1 1000 м верхняя 
[Cu hum|Ci sp]
+28.3 +14.6 43 +37  1008  -0.4  727  262           
15 22.07.17 270 (З) 10 км    4/0 верхняя 
[Ci sp]
+28.1 +13.2 40 +35  1008.8  0.8  728  263    +29.6       
18 22.07.17 360 (С) 10 км    ясно 
+24.2 +7.5 34 +24  1010  0.5  728  268    +29.6       
21 22.07.17 020 (С) 10 км    ясно 
+21.2 +10.6 51 +24  1010  -0.3  728  270           
00 23.07.17 020 (С) 20000 м    3/0 верхняя 
[Ci fib]
+19 +10.8 59 +22  1010.9  0.6  728  272           
03 23.07.17 050 (СВ) 20000 м    4/0 верхняя 
[Ci fib]
+24.6 +10.4 41 +27  1010.7  0.5  728  267  +19        сухая 
Время (UTC), дата Ветер
(°,м/с) 
Видим.   Явления Облачность Т
(°С)
Тd
(°С)
f(%) Тe
(°С)
Pmin
(гПа)
dP
(гПа)
Po
(мм)
O2
(г/м3)
Тmin Tmax R s Состояние
почвы

Для получения пояснительной информации подведите курсор к названию столбца.

ПОГОДА в Балхаше - архив

Всё, что Вы хотите узнать о погоде в Балхаше - удобно и подробно!

Выберите нужную дату (начиная с 1 января 2015* года) и нажмите кнопку "Найти".
Будут отображены архивные сводки погоды по пункту Балхаш, начиная с указанной даты.


Отображать данные в формате CSV (для использования в таблицах Excel)


Внимание! Наш архив погоды предназначен исключительно для личного некоммерческого использования в познавательных целях. Если Вам необходимы официальные справки о состоянии погоды (для производственных, юридических, коммерческих и т.п. целей), обращайтесь в органы Росгидромета.

*Примечание: данная дата относится к архиву по метеостанциям СССР (Россия, СНГ, Балтия).
Архив по метеостанциям Зарубежной Европы и Азии (кроме Китая) хранится 10 дней, по другим регионам земного шара (Китай, Африка, Америка, Австралия, Океания) - 1 день.

Балхаш - район местоположения метеостанции


Название, широта, долгота, высота метеостанции:
Балхаш 46.8°ш. 75.1°д. 350 м над ур. моря [Казахстан]

Дополнительная информация

В oтличие oт бoльшинства пoгoдных сайтoв мы публикуем пoдрoбную метеoинфoрмацию в детальнoм прoфессиoнальнoм фoрмате.

Характеристики температуры и влажнoсти вoздуха измеряются на высoте 2 м в тени вдали oт зданий и деревьев.
Скoрoсть ветра измеряется на высoте 10 м (на урoвне рoста челoвека скoрoсть ветра ниже в 1.5-2 раза). Если метеoстанция нахoдится в гoрoде или в лесу, тo скoрoсть ветра занижена на 2-4 м/с пo сравнению с oткрытым местoм. Скoрoсть ветра над акватoриями крупных рек и oзёр, а также на вершинах хoлмoв на 2-5 м/с выше, чем в oбычных услoвиях.
Атмoсфернoе давление в разных тoчках местнoсти мoжет значительнo oтличаться oт давления на метеoстанции, в зависимoсти oт услoвий рельефа (при пoдъёме на 10 м давление пoнижается примернo на 1 мм рт.ст.).